Location: *
(33.3200°N, 8.3381°W)
Time: 16:49:08
(UTC+00:00)

Cosmos 1340 Rocket - Pass Details

Date: 09 April 2020
Orbit: 529 x 559 km, 81.2° (Epoch: 27 May)

Event Time Altitude Azimuth Distance (km) Brightness Sun altitude
Rises 20:37:30 0° 203° (SSW) 2,726 6.4 -20.2°
Reaches altitude 10° 20:39:46 10° 211° (SSW) 1,833 5.5 -20.7°
Maximum altitude 20:43:34 39° 281° (W) 835 4.2 -21.4°
Drops below altitude 10° 20:47:23 10° 351° (N) 1,832 5.9 -22.1°
Sets 20:49:39 0° 359° (N) 2,725 6.7 -22.5°
